Main page
Satellite images Climate Cyclones Lightning AirportsFAQ Languages Contact Newsletter About
Weather : Europe Africa North America South America Asia Australia-Oceania Others

5594, Hanoi, Noi Bai International Airport

latitude: , longitude: Vietnam, elevation: 21-01N m


METAR: VVNB 211700Z 22002KT 9000 NSC 29/24 Q1009 NOSIG